When you browse on this site, cookies collect data to enhance your experience and personalize the content and advertising you see.
Visit our Privacy Policy to learn more. By continuing to use the site, you agree to this use of cookies and data.
  • In Lithuania
  • List of Countries
  • For 7 days
  • Water Temperature
  • Weather Map
  • Weather Widgets
  • user-avatar
    Login

    Hourly Weather La Massana

    Today, 28 February, Friday

    Time Temperature Precipitation Wind Pressure Humidity
    00:00 0°C° 0 mm 3 mps 609 mmHg 95%
    01:00 0°C° 0.3 mm 3 mps 609 mmHg 95%
    02:00 +1°C° 0.3 mm 2 mps 609 mmHg 96%
    03:00 +2°C° 0.3 mm 1 mps 609 mmHg 96%
    04:00 +2°C° 0.3 mm 1 mps 609 mmHg 96%
    05:00 +2°C° 0.3 mm 1 mps 610 mmHg 96%
    06:00 +1°C° 0 mm 2 mps 610 mmHg 96%
    07:00 +3°C° 0 mm 1 mps 611 mmHg 92%
    08:00 +4°C° 0 mm 1 mps 611 mmHg 88%
    09:00 +5°C° 0 mm 1 mps 612 mmHg 84%
    10:00 +6°C° 0 mm 1 mps 612 mmHg 78%
    11:00 +7°C° 0 mm 1 mps 613 mmHg 72%
    12:00 +9°C° 0 mm 1 mps 613 mmHg 67%
    13:00 +9°C° 0 mm 1 mps 613 mmHg 68%
    14:00 +9°C° 0 mm 1 mps 612 mmHg 68%
    15:00 +8°C° 0 mm 1 mps 612 mmHg 69%
    16:00 +7°C° 0 mm 1 mps 611 mmHg 76%
    17:00 +4°C° 0 mm 2 mps 610 mmHg 83%
    18:00 +3°C° 0 mm 2 mps 609 mmHg 90%
    19:00 +2°C° 0 mm 2 mps 609 mmHg 91%
    20:00 +2°C° 0 mm 2 mps 608 mmHg 92%
    21:00 +2°C° 0 mm 2 mps 608 mmHg 93%
    22:00 +2°C° 0 mm 2 mps 608 mmHg 92%
    23:00 +1°C° 0 mm 2 mps 607 mmHg 91%

    Tomorrow, 29 February, Saturday

    Time Temperature Precipitation Wind Pressure Humidity
    00:00 0°C° 0 mm 3 mps 607 mmHg 90%
    01:00 0°C° 0 mm 3 mps 606 mmHg 89%
    02:00 -1°C° 0 mm 3 mps 605 mmHg 88%
    03:00 -1°C° 0 mm 2 mps 604 mmHg 87%
    04:00 -1°C° 0 mm 3 mps 603 mmHg 85%
    05:00 -1°C° 0 mm 3 mps 603 mmHg 84%
    06:00 -1°C° 0 mm 3 mps 603 mmHg 83%
    07:00 0°C° 0 mm 3 mps 603 mmHg 79%
    08:00 +2°C° 0 mm 3 mps 603 mmHg 75%
    09:00 +3°C° 0 mm 3 mps 604 mmHg 71%
    10:00 +4°C° 0 mm 3 mps 604 mmHg 66%
    11:00 +5°C° 0 mm 3 mps 605 mmHg 62%
    12:00 +8°C° 0 mm 3 mps 605 mmHg 57%
    13:00 +7°C° 0 mm 3 mps 605 mmHg 63%
    14:00 +6°C° 0 mm 2 mps 604 mmHg 69%
    15:00 +5°C° 0 mm 2 mps 603 mmHg 75%
    16:00 +4°C° 0.2 mm 2 mps 603 mmHg 81%
    17:00 +4°C° 0.2 mm 1 mps 603 mmHg 87%
    18:00 +3°C° 0.2 mm 1 mps 603 mmHg 93%
    19:00 +2°C° 0.2 mm 1 mps 603 mmHg 94%
    20:00 +2°C° 0.2 mm 1 mps 603 mmHg 95%
    21:00 +2°C° 0.2 mm 1 mps 604 mmHg 96%
    22:00 +1°C° 0.2 mm 1 mps 603 mmHg 96%
    23:00 +1°C° 0.2 mm 1 mps 603 mmHg 96%

    Day after tomorrow, 1 March, Sunday

    Time Temperature Precipitation Wind Pressure Humidity
    00:00 0°C° 0.2 mm 1 mps 603 mmHg 96%
    01:00 0°C° 0.1 mm 1 mps 603 mmHg 96%
    02:00 -1°C° 0.1 mm 0 mps 603 mmHg 96%
    03:00 -1°C° 0.1 mm 0 mps 602 mmHg 96%
    04:00 -2°C° 0.2 mm 0 mps 602 mmHg 95%
    05:00 -2°C° 0.2 mm 0 mps 602 mmHg 95%
    06:00 -2°C° 0.2 mm 0 mps 602 mmHg 95%
    07:00 0°C° 0.1 mm 1 mps 602 mmHg 92%
    08:00 0°C° 0.1 mm 1 mps 602 mmHg 89%
    09:00 -1°C° 0.1 mm 2 mps 603 mmHg 86%
    10:00 -1°C° 0.1 mm 2 mps 603 mmHg 82%
    11:00 +1°C° 0.1 mm 2 mps 602 mmHg 79%
    12:00 0°C° 0.1 mm 3 mps 602 mmHg 75%
    13:00 +1°C° 0.1 mm 3 mps 602 mmHg 70%
    14:00 0°C° 0.1 mm 4 mps 602 mmHg 65%
    15:00 +1°C° 0.1 mm 4 mps 601 mmHg 60%
    16:00 +1°C° 0.2 mm 3 mps 601 mmHg 72%
    17:00 -1°C° 0.2 mm 2 mps 601 mmHg 83%
    18:00 0°C° 0.2 mm 1 mps 600 mmHg 94%
    19:00 -1°C° 0.1 mm 1 mps 600 mmHg 95%
    20:00 -1°C° 0.1 mm 1 mps 601 mmHg 95%
    21:00 -1°C° 0.1 mm 1 mps 601 mmHg 95%
    22:00 -1°C° 0.1 mm 1 mps 601 mmHg 94%
    23:00 -3°C° 0.1 mm 2 mps 600 mmHg 93%

    2 March, Monday

    Time Temperature Precipitation Wind Pressure Humidity
    00:00 -3°C° 0.1 mm 2 mps 600 mmHg 93%
    01:00 -3°C° 0.1 mm 2 mps 600 mmHg 92%
    02:00 -2°C° 0.1 mm 2 mps 599 mmHg 92%
    03:00 -2°C° 0.1 mm 2 mps 599 mmHg 92%
    04:00 -3°C° 0.1 mm 2 mps 598 mmHg 92%
    05:00 -3°C° 0.1 mm 2 mps 598 mmHg 93%
    06:00 -1°C° 0.1 mm 1 mps 597 mmHg 93%
    07:00 -2°C° 0.1 mm 2 mps 597 mmHg 91%
    08:00 -2°C° 0.1 mm 2 mps 596 mmHg 89%
    09:00 -1°C° 0.1 mm 2 mps 596 mmHg 88%
    10:00 -1°C° 0 mm 2 mps 596 mmHg 84%
    11:00 +1°C° 0 mm 2 mps 596 mmHg 81%
    12:00 +2°C° 0 mm 2 mps 596 mmHg 77%
    13:00 +1°C° 2.1 mm 2 mps 595 mmHg 84%
    14:00 -1°C° 2.1 mm 2 mps 595 mmHg 90%
    15:00 -2°C° 2.1 mm 2 mps 594 mmHg 97%
    16:00 -4°C° 0.9 mm 3 mps 594 mmHg 96%
    17:00 -4°C° 0.9 mm 3 mps 594 mmHg 95%
    18:00 -5°C° 0.9 mm 3 mps 595 mmHg 93%
    19:00 -7°C° 0.6 mm 4 mps 595 mmHg 93%
    20:00 -7°C° 0.6 mm 4 mps 596 mmHg 92%
    21:00 -8°C° 0.6 mm 5 mps 597 mmHg 92%
    22:00 -9°C° 0.4 mm 4 mps 597 mmHg 92%
    23:00 -9°C° 0.4 mm 4 mps 598 mmHg 92%

    3 March, Tuesday

    Time Temperature Precipitation Wind Pressure Humidity
    00:00 -10°C° 0.4 mm 4 mps 598 mmHg 92%
    01:00 -10°C° 1.2 mm 4 mps 598 mmHg 93%
    02:00 -10°C° 1.2 mm 4 mps 599 mmHg 93%
    03:00 -10°C° 1.2 mm 4 mps 599 mmHg 94%
    04:00 -10°C° 1 mm 4 mps 600 mmHg 94%
    05:00 -10°C° 1 mm 4 mps 600 mmHg 94%
    06:00 -10°C° 1 mm 4 mps 601 mmHg 94%
    07:00 -9°C° 1.1 mm 4 mps 602 mmHg 90%
    08:00 -8°C° 1.1 mm 4 mps 603 mmHg 87%
    09:00 -7°C° 1.1 mm 5 mps 603 mmHg 83%
    10:00 -7°C° 0.4 mm 5 mps 604 mmHg 80%
    11:00 -5°C° 0.4 mm 4 mps 604 mmHg 77%
    12:00 -4°C° 0.4 mm 4 mps 605 mmHg 74%
    13:00 -4°C° 0.1 mm 4 mps 605 mmHg 75%
    14:00 -4°C° 0.1 mm 3 mps 604 mmHg 76%
    15:00 -4°C° 0.1 mm 3 mps 604 mmHg 77%
    16:00 -5°C° 0 mm 3 mps 604 mmHg 79%
    17:00 -5°C° 0 mm 2 mps 603 mmHg 82%
    18:00 -7°C° 0 mm 2 mps 603 mmHg 85%
    19:00 -6°C° 0.2 mm 2 mps 603 mmHg 84%
    20:00 -5°C° 0.2 mm 2 mps 604 mmHg 83%
    21:00 -4°C° 0.2 mm 2 mps 604 mmHg 82%
    22:00 -3°C° 0.7 mm 2 mps 604 mmHg 86%
    23:00 -3°C° 0.7 mm 2 mps 604 mmHg 90%

    4 March, Wednesday

    Time Temperature Precipitation Wind Pressure Humidity
    00:00 -2°C° 0.7 mm 2 mps 604 mmHg 94%
    01:00 -2°C° 2 mm 2 mps 604 mmHg 96%
    02:00 -1°C° 2 mm 2 mps 604 mmHg 97%
    03:00 -1°C° 2 mm 2 mps 604 mmHg 98%
    04:00 -1°C° 2.2 mm 2 mps 604 mmHg 98%
    05:00 -1°C° 2.2 mm 2 mps 604 mmHg 98%
    06:00 +1°C° 2.2 mm 2 mps 604 mmHg 98%
    07:00 +1°C° 1.2 mm 2 mps 604 mmHg 98%
    08:00 +1°C° 1.2 mm 2 mps 604 mmHg 97%
    09:00 +2°C° 1.2 mm 2 mps 605 mmHg 97%
    10:00 +2°C° 0.1 mm 2 mps 605 mmHg 93%
    11:00 +2°C° 0.1 mm 3 mps 606 mmHg 89%
    12:00 +2°C° 0.1 mm 3 mps 606 mmHg 85%
    13:00 +2°C° 0 mm 3 mps 606 mmHg 82%
    14:00 +2°C° 0 mm 3 mps 606 mmHg 80%
    15:00 +2°C° 0 mm 3 mps 605 mmHg 77%
    16:00 0°C° 0 mm 3 mps 605 mmHg 79%
    17:00 -1°C° 0 mm 3 mps 605 mmHg 81%
    18:00 -3°C° 0 mm 2 mps 604 mmHg 83%
    19:00 -3°C° 0 mm 2 mps 604 mmHg 77%
    20:00 -4°C° 0 mm 2 mps 604 mmHg 72%
    21:00 -5°C° 0 mm 3 mps 605 mmHg 67%
    22:00 -4°C° 0 mm 2 mps 604 mmHg 66%
    23:00 -4°C° 0 mm 2 mps 604 mmHg 66%
    Show more